AirNav   Air Wisconsin pilot careers
 
 959 users online  

49F Rankin Airport
Rankin, Texas, USA


FAA INFORMATION EFFECTIVE 01 FEBRUARY 2018

Location

FAA Identifier: 49F
Lat/Long: 31-13-37.3000N / 101-57-10.5000W
31-13.621667N / 101-57.175000W
31.2270278 / -101.9529167
(estimated)
Elevation: 2543 ft. / 775.1 m (surveyed)
Variation: 09E (1985)
From city: 1 mile W of RANKIN, TX
Time zone: UTC -6 (UTC -5 during Daylight Saving Time)
Zip code: 79755

Airport Operations

Airport use: Open to the public
Control tower: no
ARTCC: HOUSTON CENTER
FSS: SAN ANGELO FLIGHT SERVICE STATION
NOTAMs facility: SJT (NOTAM-D service available)
Attendance: UNATNDD
AIRPORT GATE LOCKED. FOR ACCESS CALL SHERIFF'S OFFICE 432-693-2411.
Wind indicator: yes
Segmented circle: no

Airport Communications

CTAF: 122.9

Airport Services

Airframe service: NONE
Powerplant service: NONE

Runway Information

Runway 17/35

Dimensions: 3000 x 35 ft. / 914 x 11 m
Surface: gravel/dirt, in good condition
RUNWAY 17  RUNWAY 35
Latitude: 31-13.869785N31-13.374853N
Longitude: 101-57.178738W101-57.172263W
Elevation: 2541.0 ft.2509.0 ft.
Gradient: 1.1% UP
Traffic pattern: leftleft
Runway heading: 170 magnetic, 179 true350 magnetic, 359 true
Obstructions: 60 ft. hill, 1500 ft. from runway, 25:1 slope to clear20 ft. trees, 368 ft. from runway, 8:1 slope to clear

Airport Ownership and Management from official FAA records

Ownership: Publicly-owned
Owner: UPTON COUNTY
UPTON CO COURTHOUSE
RANKIN, TX 79778
Phone 432-693-2321
Manager: CARL ABSHER
PO BOX 824
MC CAMEY, TX 79752
Phone 432-652-3807

Airport Operational Statistics

Aircraft based on the field: 1
Single engine airplanes: 1
    
Aircraft operations: avg 58/month *
57% transient general aviation
43% local general aviation
* for 12-month period ending 30 October 2014

Instrument Procedures

There are no published instrument procedures at 49F.

Some nearby airports with instrument procedures:

E41 - Reagan County Airport (25 nm E)
KMAF - Midland International Air and Space Port Airport (45 nm N)
KODO - Odessa Airport-Schlemeyer Field (47 nm NW)
KOZA - Ozona Municipal Airport (49 nm SE)
KMDD - Midland Airpark (49 nm N)
 
Loc | Ops | Rwys | IFR | FBO | Links
Com | Nav | Svcs | Stats | Notes

Chandler Aviation LLC
 
Area around 49F (Rankin Airport)
 
Road maps at: MapQuest Bing Google
 
Aerial photo
No photo
 
Sectional chart

 
Airport distance calculator
Flying to Rankin Airport? Find the distance to fly.

From to 49F

Sunrise and sunset
Times for 24-Feb-2018
 Local
(UTC-6)
 Zulu
(UTC)
Morning civil twilight06:5712:57
Sunrise07:2113:21
Sunset18:4100:41
Evening civil twilight19:0601:06

Current date and time
Zulu (UTC)  24-Feb-2018 20:43:13
Local (UTC-6)  24-Feb-2018 14:43:13
 
METAR
KMAF 
45nm N 
241953Z 27017G28KT 10SM CLR 21/M10 A2993 RMK AO2 PK WND 30028/1924 SLP104 T02061100
KODO 
47nm NW 
241953Z AUTO 27017G26KT 10SM CLR 19/M11 A2994 RMK AO2 PK WND 30028/1939 SLP108 T01941111
KOZA 
49nm SE 
242015Z AUTO 31012G21KT 10SM CLR 23/M04 A2994 RMK AO2
KMDD 
49nm N 
242015Z AUTO 26021G31KT 10SM 21/M10 A2993 RMK AO2 T02071097
TAF
KMAF 
45nm N 
241725Z 2418/2518 29016G28KT P6SM SKC FM250000 29008KT P6SM SKC
NOTAMs
Click for the latest NOTAMs
NOTAMs are issued by the DoD/FAA and will open in a separate window not controlled by AirNav.

 

 
 

Would you like to see your business listed on this page?

 If your business provides an interesting product or service to pilots, flight crews, aircraft, or users of the Rankin Airport, you should consider listing it here.  To start the listing process, click on the button below
 
Add a business
 

Other Pages about Rankin Airport

Update a link
 
Copyright © AirNav, LLC. All rights reserved. Privacy Policy  Contact